Retour au catalogue

CZ-6A DEB

ActifPO
NORAD 60649·DEBRIS·🇨🇳 China

Lancé Aug 6, 2024 depuis Taiyuan Satellite Launch Center

Loading…

Prochains Passages (prochaines 24 heures)

TLE

FraisSource: Space-Track

Époque: Sep 14, 2026, 09:57 UTC

1 60649U 24140BA  26257.41499596  .00000479  00000-0  10259-3 0  9995
2 60649  88.9837 258.5403 0109657 315.7185  43.5287 14.53407907111355

Suivez CZ-6A DEB en temps réel avec AllMySat

Download on the App Store